Location: Beaufort Park
(39.1418°N, 76.9433°W)
Time: 20:48:19
(UTC+00:00)

OAO 2 Rocket - Pass Details

Date: 29 October 2020
Orbit: 676 x 746 km, 35.0° (Epoch: 03 December)

Event Time Altitude Azimuth Distance (km) Brightness Sun altitude
Rises 23:37:49 0° 262° (W) 3,065 8.4 -17.6°
Reaches altitude 10° 23:40:16 10° 258° (WSW) 2,137 7.1 -18.1°
Maximum altitude 23:45:08 54° 181° (S) 831 3.7 -19.0°
Enters shadow 23:46:56 34° 124° (SE) 1,106 3.9 -19.4°
